#timestamp,LO_Frequency,Hit,StdDev 
1572404415.9,286047000.9,N
1572404435.7,286047000.0,N
1572404455.5,286047000.8,N
1572404475.4,286047002.6,N
1572404495.2,286047000.3,N
1572404515.1,286047000.4,N
1572404516.0,286047000.4,N
1572404535.8,286046999.9,N
1572404555.6,286046998.6,N
1572404575.5,286047001.0,N
1572404595.3,286047003.3,Y
1572404615.2,286047002.6,P
1572404635.9,286047003.8,P
1572404655.7,286047007.6,P
1572404675.6,286047007.2,N
1572404695.4,286047007.3,N
1572404715.2,286047006.6,N
1572404735.1,286047010.8,Y
1572404736.0,286047010.8,P
1572404755.8,286047005.6,N
1572404775.7,286047004.1,N
1572404795.5,286047005.9,N
1572404815.3,286047003.2,N
1572404835.2,286047003.7,N
1572404855.0,286047004.4,N
1572404855.9,286047004.4,N
1572404875.7,286047000.9,N
1572404895.6,286046998.3,N
1572404915.4,286046996.9,N
1572404935.3,286046997.1,N
1572404955.1,286046998.9,N
1572404956.0,286046998.9,N
1572404975.8,286046997.8,N
1572404995.7,286046997.0,N
1572405015.5,286047000.5,N
1572405035.3,286047001.8,N
1572405055.2,286047001.8,N
1572405075.0,286047003.9,N
1572405075.9,286047003.9,N
1572405095.8,286047003.0,N
1572405115.6,286047001.3,N
1572405135.4,286047001.2,N
1572405155.3,286047000.5,N
1572405175.1,286047004.2,N
1572405195.9,286047002.0,N
1572405215.7,286047000.7,N
1572405235.5,286047000.8,N
1572405255.4,286046998.5,N
1572405275.2,286047002.5,N
1572405295.0,286047000.1,N
1572405295.9,286047000.1,N
1572405315.8,286047000.2,N
1572405335.6,286046998.5,N
1572405355.5,286046999.1,N
1572405375.3,286046998.9,N
1572405395.1,286047000.7,N
1572405415.9,286046996.9,N
1572405435.7,286046998.5,N
1572405455.5,286046998.9,N
1572405475.4,286046996.8,N
1572405495.2,286046997.2,N
1572405515.1,286046999.3,N
1572405516.0,286046999.3,N
1572405535.8,286046998.2,N
1572405555.6,286047000.9,N
1572405575.5,286046996.8,N
1572405595.3,286046993.3,Y
1572405615.2,286046993.9,P
1572405635.9,286046990.1,P
1572405655.7,286046990.7,N
1572405675.6,286046989.0,N
1572405695.4,286046988.4,N
1572405715.2,286046985.6,Y
1572405735.1,286046994.1,P
1572405736.0,286046994.1,P
1572405755.8,286046992.7,P
1572405775.7,286046991.9,Y
1572405795.5,286047002.5,P
1572405815.3,286047002.8,N
1572405835.2,286047000.5,N
1572405855.0,286047001.0,N
1572405855.9,286047001.0,N
1572405875.8,286046999.0,N
1572405895.6,286046997.6,N
1572405915.4,286046995.8,N
1572405935.3,286046993.6,N
1572405955.1,286046995.7,N
1572405975.8,286046994.1,N
1572405995.7,286046992.1,N
1572406015.5,286046991.7,N
1572406035.4,286046993.1,N
1572406055.2,286046991.1,N
1572406075.0,286046990.6,N
1572406075.9,286046990.6,N
1572406095.8,286046988.8,N
1572406115.6,286046989.2,N
1572406135.4,286046990.0,N
1572406155.3,286046987.5,N
1572406175.1,286046988.0,N
1572406195.9,286046987.6,N
1572406215.7,286046988.1,N
1572406235.5,286046988.4,N
1572406255.4,286046985.3,Y
1572406275.2,286046991.4,P
1572406295.0,286046991.4,P
1572406295.9,286046991.4,P
1572406315.8,286046988.5,Y
1572406335.6,286046998.3,P
1572406355.5,286046999.3,N
1572406375.3,286046998.6,N
1572406395.1,286047001.7,N
1572406415.9,286046999.8,N
1572406435.7,286047000.2,N
1572406455.6,286047001.1,N
1572406475.4,286046998.2,N
1572406495.2,286047000.3,N
1572406545.1,286046997.9,E
1572406555.0,286046997.1,N
1572406555.9,286046997.1,P
1572406575.8,286046997.0,P
1572406595.6,286046997.0,Y
1572406615.4,286047000.0,P
1572406635.3,286047002.7,N
1572406655.1,286047002.7,N
1572406675.8,286047001.6,N
1572406695.7,286047002.4,N
1572406715.5,286046999.9,N
1572406735.4,286047001.2,N
1572406755.2,286046998.8,N
1572406775.0,286046999.0,N
1572406775.9,286046999.0,N
1572406795.8,286047000.8,N
1572406815.6,286046998.8,N
1572406835.4,286047001.0,N
1572406855.3,286047000.1,N
1572406875.1,286046998.3,N
1572406895.9,286047000.9,N
1572406915.7,286046999.8,N
1572406935.5,286047001.6,N
1572406955.4,286047001.5,N
1572406975.2,286047003.4,N
1572406995.1,286047005.4,Y
1572406996.0,286047005.4,P
1572407015.8,286047005.8,N
1572407035.6,286047005.2,N
1572407055.5,286047003.8,N
1572407075.3,286047002.6,N
1572407095.1,286046998.1,N
1572407115.9,286046998.7,N
1572407135.7,286047001.0,N
1572407155.6,286046999.8,N
1572407175.4,286046999.9,N
1572407195.2,286047001.2,N
1572407215.1,286046999.0,N
1572407216.0,286046999.0,N
1572407235.8,286046999.4,N
1572407255.6,286046995.8,N
1572407275.5,286046998.0,N
1572407295.3,286046997.5,N
1572407315.2,286046995.5,N
1572407335.9,286046997.9,N
1572407355.7,286046998.0,N
1572407375.6,286046996.9,N
1572407395.4,286046999.2,N
1572407415.2,286047000.2,N
1572407435.1,286046998.5,N
1572407436.0,286046998.5,N
1572407455.8,286046997.2,N
1572407475.7,286046999.5,N
1572407495.5,286046999.4,N
1572407515.3,286046996.7,N
1572407535.2,286046996.8,N
1572407555.9,286046998.9,N
1572407575.7,286046997.2,N
1572407595.6,286046997.2,N
1572407615.4,286046996.5,N
1572407635.2,286047000.8,N
1572407655.1,286046999.0,N
1572407656.0,286046999.0,N
1572407675.8,286046996.5,N
1572407695.7,286046996.6,N
1572407715.5,286046994.9,Y
1572407735.3,286047000.7,P
1572407755.2,286047001.1,N
1572407775.0,286046998.1,N
1572407775.9,286046998.1,N
1572407795.8,286046998.2,N
1572407815.6,286046999.2,N
1572407835.4,286047001.2,N
1572407855.3,286046996.7,N
1572407875.1,286046996.7,N
1572407895.8,286046996.5,N
1572407915.7,286046996.2,N
1572407935.5,286046993.8,Y
1572407955.4,286046995.0,P
1572407975.2,286046995.7,N
1572407995.0,286046995.4,P
1572407995.9,286046995.4,Y
